[[{"header":{"parameterUnit":"m.s-1","parameterCategory":1,"la1":30.2991,"la2":30.254,"lo1":-89.0895,"lo2":-89.0444,"dy":0.0017,"dx":0.0017,"nx":28,"ny":28,"refTime":"2025-07-12T09:00:00:Z","depth":0,"parameterNumber":2,"parameterNumberName":"U-component_of_WINDS"},"data":[0,0,0,0,0,0,0,0,0,0,0,0,0,0,0,0,0,0,0,0,0,0,0,0,0,0,0,0,0,0,0,0,0,0,0,0,0,0,0,0,0,0,0,0,0,0,0,0,0,0,0,0,0,0,0,0,0,0,1.8735,1.8736,0,1.8808,1.8809,1.881,1.8795,1.8793,1.8792,1.8791,1.8866,1.8869,1.8872,0,0,0,0,0,0,0,0,0,0,0,0,0,1.8581,1.8584,1.8735,1.8736,1.8737,1.8808,1.8809,1.881,1.8795,1.8793,1.8792,1.879,1.8865,1.8869,1.8873,0,0,0,0,0,0,0,0,0,0,0,0,0,1.865,1.8585,1.8735,1.8738,1.8739,1.8808,1.8809,1.881,1.8795,1.8793,1.8791,1.8789,1.8864,1.8868,1.8873,1.8943,0,0,1.8888,1.889,0,0,0,0,0,0,0,0,1.8646,1.8656,1.8737,1.8738,1.8739,1.879,1.8782,1.8855,1.8796,1.8774,1.8791,1.8789,1.8842,1.8849,1.8867,1.8947,1.895,1.8889,1.8891,1.8894,1.8895,0,0,0,0,0,0,0,1.8642,1.8653,1.8764,1.8738,1.8739,1.8735,1.8743,1.8796,1.8819,1.8776,1.8775,1.8784,1.8843,1.8862,1.8869,1.8951,1.8888,1.8893,1.8896,1.8898,1.9089,1.9091,0,0,0,0,0,0,1.8636,1.8649,1.8762,1.8766,1.8687,1.874,1.8748,1.8776,1.8818,1.8822,1.8785,1.8783,1.8855,1.8863,1.8871,1.8954,1.8894,1.8898,1.8901,1.9087,1.909,1.9092,0,0,0,0,0,0,1.8633,1.8646,1.8759,1.8707,1.8721,1.8744,1.8776,1.8778,1.8798,1.8825,1.8829,1.8801,1.8854,1.8864,1.8925,1.8956,1.89,1.8905,1.9084,1.9088,1.9091,1.9121,0,0,0,0,0,0,1.8628,1.8645,1.8672,1.8708,1.8724,1.8811,1.8778,1.8781,1.8806,1.8804,1.8841,1.8845,1.8853,1.8918,1.893,1.8962,1.8909,1.9082,1.9086,1.909,1.9117,1.9125,1.9131,0,0,0,0,0,1.8623,1.8679,1.8674,1.8688,1.8759,1.8813,1.8822,1.883,1.8809,1.8836,1.8853,1.8844,1.8951,1.8924,1.8937,1.8972,1.908,1.9085,1.909,1.9114,1.9123,1.9131,0,0,0,0,0,0,1.8647,1.8683,1.8679,1.8748,1.8777,1.8811,1.8845,1.884,1.8876,1.8872,1.888,1.8889,1.8949,1.8967,1.8936,1.904,1.9012,1.902,1.9026,1.9035,1.9042,1.9036,1.8913,0,0,0,0,0,1.866,1.8702,1.8731,1.8789,1.8804,1.8822,1.8846,1.8849,1.888,1.8893,1.8915,1.8945,1.8985,1.9012,1.905,1.912,1.9126,1.915,1.9157,1.9163,1.9169,1.9204,1.9214,1.9108,1.9108,1.9108,0,0,1.8688,1.8713,1.8739,1.8795,1.8818,1.886,1.8833,1.8879,1.891,1.89,1.8957,1.8975,1.9009,1.9073,1.9103,1.909,1.9199,1.9169,1.9173,1.9176,1.921,1.922,1.9229,1.9111,1.9111,1.911,0,0,1.876,1.8784,1.8833,1.8857,1.8892,1.8903,1.8915,1.8949,1.896,1.9017,1.901,1.9047,1.9117,1.914,1.9162,1.924,1.9232,1.9253,1.9289,1.9323,1.9331,1.9339,1.9364,1.9373,1.9259,1.9259,1.9259,0,1.879,1.8852,1.886,1.8905,1.8929,1.8922,1.8971,1.8994,1.904,1.9056,1.9041,1.9126,1.9149,1.9218,1.9236,1.9255,1.9267,1.9248,1.933,1.9337,1.9344,1.9368,1.9378,1.9261,1.9261,1.9261,1.9261,0,1.8886,1.893,1.8966,1.9009,1.9037,1.9085,1.9098,1.9125,1.9126,1.9138,1.9196,1.9223,1.9265,1.9282,1.9284,1.935,1.9341,1.9328,1.93,1.9356,1.9379,1.9388,1.9264,1.9263,1.9263,1.9262,0,0,1.8975,1.902,1.9033,1.9052,1.9089,1.9123,1.9169,1.921,1.9232,1.9265,1.9302,1.936,1.9348,1.9372,1.9376,1.9406,1.9463,1.9389,1.939,1.94,1.9535,1.9543,1.9554,1.9459,1.9461,1.9462,1.9531,0,1.9048,1.9129,1.9136,1.9209,1.9247,1.924,1.928,1.9307,1.932,1.9354,1.9369,1.9408,1.939,1.9404,1.9434,1.945,1.949,1.9445,1.9492,1.9494,1.9481,1.9566,1.9575,1.9639,1.954,1.9542,1.9543,0,1.9144,1.9177,1.9253,1.9283,1.9299,1.9335,1.9372,1.9406,1.9435,1.9442,1.9468,1.9468,1.9514,1.9485,1.9548,1.9517,1.9537,1.9548,1.955,1.9553,1.952,1.9569,1.966,1.9669,1.9558,1.9557,1.9556,0,1.9197,1.9261,1.9314,1.9331,1.9368,1.9392,1.9409,1.9437,1.946,1.9493,1.9507,1.9545,1.9566,1.9594,1.9603,1.9582,1.9665,1.9638,1.967,1.967,1.9687,1.9685,1.978,1.9703,1.9703,1.9703,1.9703,0,1.9276,1.9322,1.9338,1.9371,1.9422,1.9429,1.9479,1.9494,1.9519,1.9553,1.955,1.9583,1.9594,1.9628,1.9635,1.9684,1.9694,1.97,1.9701,1.9699,1.9698,1.9711,1.9705,1.9706,1.9705,1.9705,1.9704,0,1.9344,1.9357,1.9413,1.9443,1.9452,1.9488,1.9513,1.9543,1.9555,1.9599,1.9609,1.9628,1.9667,1.9679,1.9728,1.9732,1.9789,1.9788,1.9779,1.9778,1.9809,1.9805,1.9914,1.9927,1.9844,1.9845,1.9846,0,1.9392,1.9427,1.946,1.9483,1.95,1.9537,1.956,1.9568,1.9593,1.9628,1.9654,1.9693,1.9724,1.9788,1.9805,1.9841,1.9839,1.9875,1.9845,1.984,1.9836,1.9833,1.9836,1.9879,1.988,1.9881,1.9882,0,1.9476,1.948,1.9514,1.9549,1.9577,1.9606,1.9633,1.9652,1.9664,1.9691,1.9731,1.9755,1.9804,1.9842,1.9878,1.9894,1.9889,1.9891,1.99,1.9897,1.989,1.9891,1.9792,1.9888,1.9888,1.9887,1.9887,1.9886,1.9534,1.9564,1.9591,1.9628,1.9649,1.9674,1.9703,1.9718,1.9752,1.9791,1.9794,1.9837,1.9864,1.9912,1.993,1.9963,1.9953,1.9966,1.9969,1.9972,1.9973,1.9886,1.997,1.997,1.997,1.997,1.9969,0,1.9615,1.9632,1.9666,1.9703,1.9732,1.9725,1.9755,1.9779,1.9816,1.9842,1.9872,1.9917,1.9953,1.9973,2.0009,2.0032,2.003,2.0041,2.0038,2.0041,1.9982,1.9969,2.0041,2.0041,2.0041,2.0041,2.0041,2.0041,1.966,1.9709,1.9716,1.9775,1.9792,1.9833,1.985,1.9873,1.9893,1.9943,1.9972,1.9985,2.0008,2.0045,2.0078,2.0083,2.0095,2.0106,2.0109,2.0053,2.0046,2.0039,2.0027,2.0109,2.011,2.0166,2.0166,2.0167]},{"header":{"parameterUnit":"m.s-1","parameterCategory":1,"la1":30.2991,"la2":30.254,"lo1":-89.0895,"lo2":-89.0444,"dy":0.0017,"dx":0.0017,"nx":28,"ny":28,"refTime":"2025-07-12T09:00:00:Z","depth":0,"parameterNumber":3,"parameterNumberName":"V-component_of_WINDS"},"data":[0,0,0,0,0,0,0,0,0,0,0,0,0,0,0,0,0,0,0,0,0,0,0,0,0,0,0,0,0,0,0,0,0,0,0,0,0,0,0,0,0,0,0,0,0,0,0,0,0,0,0,0,0,0,0,0,0,0,3.8819,3.8819,0,3.8877,3.8877,3.8878,3.8827,3.8825,3.8823,3.8821,3.8876,3.8879,3.8883,0,0,0,0,0,0,0,0,0,0,0,0,0,3.8658,3.8661,3.8819,3.8819,3.882,3.8877,3.8877,3.8878,3.8828,3.8825,3.8823,3.882,3.8875,3.8879,3.8883,0,0,0,0,0,0,0,0,0,0,0,0,0,3.8723,3.8662,3.8819,3.8802,3.8801,3.8876,3.8877,3.8878,3.8828,3.8825,3.8822,3.8819,3.8873,3.8878,3.8883,3.8977,0,0,3.8899,3.8901,0,0,0,0,0,0,0,0,3.8719,3.8729,3.8804,3.8803,3.8802,3.8842,3.8841,3.8911,3.8829,3.8818,3.8821,3.8818,3.8867,3.8872,3.889,3.898,3.8982,3.8899,3.8902,3.8905,3.8906,0,0,0,0,0,0,0,3.8715,3.8726,3.8841,3.8805,3.8804,3.8789,3.8795,3.8854,3.8859,3.8818,3.8815,3.8823,3.8866,3.8885,3.8891,3.8983,3.8899,3.8904,3.8907,3.8909,3.9149,3.9152,0,0,0,0,0,0,3.8713,3.8722,3.884,3.8843,3.8752,3.8795,3.8801,3.8832,3.8858,3.8859,3.8825,3.882,3.8878,3.8885,3.8892,3.9001,3.8905,3.8909,3.8912,3.9145,3.9149,3.9153,0,0,0,0,0,0,3.8709,3.8724,3.8837,3.8782,3.8795,3.8801,3.8836,3.8835,3.8854,3.8863,3.8863,3.8845,3.8876,3.8885,3.8956,3.9003,3.8912,3.8916,3.9141,3.9147,3.9151,3.9222,0,0,0,0,0,0,3.8705,3.8723,3.876,3.8783,3.8799,3.8902,3.8839,3.8838,3.8864,3.8857,3.8881,3.8882,3.8874,3.8949,3.8961,3.9008,3.892,3.9137,3.9144,3.915,3.9215,3.9229,3.924,0,0,0,0,0,3.87,3.8777,3.8762,3.8777,3.8846,3.8905,3.8913,3.8904,3.8868,3.8904,3.8909,3.8881,3.8996,3.8956,3.897,3.9019,3.9134,3.9142,3.9149,3.921,3.9226,3.924,0,0,0,0,0,0,3.8758,3.878,3.8764,3.8852,3.8877,3.8896,3.8942,3.8922,3.8956,3.8949,3.8934,3.8939,3.9014,3.9023,3.8979,3.9109,3.9059,3.9069,3.91,3.9116,3.9128,3.9123,3.8924,0,0,0,0,0,3.8782,3.883,3.8846,3.8922,3.8935,3.8937,3.8962,3.8952,3.8977,3.8987,3.8998,3.9022,3.9062,3.909,3.9128,3.9217,3.922,3.9257,3.9269,3.9279,3.9288,3.9333,3.9349,3.9178,3.9178,3.9177,0,0,3.883,3.8848,3.8879,3.8934,3.8952,3.9,3.8946,3.9,3.9034,3.8995,3.9062,3.9071,3.9096,3.9175,3.9211,3.9186,3.9336,3.9289,3.9297,3.93,3.9342,3.9358,3.9373,3.9183,3.9182,3.9181,0,0,3.8943,3.8963,3.9027,3.9046,3.9075,3.9075,3.9091,3.9113,3.9117,3.9185,3.9155,3.9195,3.9267,3.9286,3.9304,3.9422,3.9397,3.9435,3.9499,3.9543,3.9556,3.9568,3.9607,3.9622,3.9444,3.9444,3.9444,0,3.8999,3.9072,3.9062,3.9118,3.9141,3.9109,3.9172,3.9191,3.923,3.9246,3.9218,3.9306,3.932,3.9402,3.9431,3.9448,3.9463,3.9432,3.9555,3.9567,3.9578,3.9615,3.9631,3.9448,3.9448,3.9447,3.9447,0,3.9139,3.919,3.9238,3.9277,3.9306,3.9365,3.9362,3.9392,3.9379,3.9381,3.9449,3.9466,3.9506,3.9525,3.9513,3.9604,3.9587,3.9558,3.9506,3.9599,3.9634,3.9648,3.9454,3.9453,3.9452,3.9451,0,0,3.929,3.9323,3.934,3.9357,3.9385,3.9423,3.948,3.952,3.9545,3.9573,3.9618,3.9679,3.9651,3.9672,3.9661,3.97,3.9789,3.9665,3.9665,3.9686,3.9888,3.9909,3.9926,3.9773,3.9776,3.9778,3.9885,0,3.9403,3.9502,3.9494,3.9587,3.9632,3.9601,3.965,3.9671,3.9674,3.9711,3.9714,3.9757,3.9718,3.973,3.9767,3.9771,3.9829,3.9763,3.9812,3.9814,3.9806,3.9945,3.9968,4.0069,3.9899,3.9902,3.9903,0,3.9547,3.958,3.9679,3.9698,3.9717,3.9761,3.9796,3.9833,3.9855,3.9854,3.9878,3.986,3.9914,3.9862,3.9935,3.989,3.991,3.9915,3.9918,3.9921,3.9864,3.995,4.0101,4.0115,3.9925,3.9923,3.9922,0,3.9645,3.9715,3.9782,3.9797,3.9822,3.9853,3.9865,3.9885,3.9909,3.9938,3.9953,3.9989,4.0008,4.0035,4.0026,3.999,4.01,4.0049,4.0099,4.0099,4.0123,4.0121,4.0277,4.0138,4.0138,4.0138,4.0138,0,3.977,3.9831,3.9826,3.9867,3.9933,3.9921,3.9986,3.9994,4.0011,4.0051,4.0027,4.0064,4.0052,4.0088,4.0082,4.0141,4.0151,4.015,4.0147,4.0151,4.0151,4.0163,4.0155,4.0142,4.0141,4.014,4.0139,0,3.9891,3.989,3.9961,3.9979,3.9984,4.0032,4.0046,4.0083,4.0084,4.0135,4.0146,4.0147,4.0189,4.0183,4.0229,4.0225,4.0299,4.0288,4.0291,4.0288,4.0339,4.0333,4.0506,4.0527,4.0377,4.0378,4.0379,0,3.997,4.0016,4.0039,4.0064,4.0078,4.012,4.0144,4.0134,4.016,4.0188,4.0221,4.0261,4.0292,4.0359,4.0362,4.0397,4.0386,4.0444,4.0391,4.0393,4.0384,4.0381,4.0384,4.0454,4.0456,4.0457,4.0459,0,4.011,4.0107,4.0144,4.018,4.021,4.0238,4.0263,4.0285,4.0276,4.0306,4.0349,4.0373,4.042,4.0458,4.049,4.05,4.0477,4.0475,4.0489,4.0493,4.0492,4.0491,4.0318,4.0471,4.047,4.0469,4.0468,4.0468,4.0211,4.0249,4.0271,4.0312,4.033,4.0353,4.0389,4.0394,4.043,4.0468,4.0459,4.0506,4.0525,4.0566,4.0579,4.0614,4.0593,4.0612,4.0617,4.0622,4.0627,4.0487,4.062,4.062,4.062,4.0619,4.0619,0,4.0348,4.036,4.0398,4.0434,4.0465,4.0443,4.0468,4.0496,4.0538,4.0559,4.0589,4.0637,4.0674,4.068,4.0714,4.0741,4.0732,4.0751,4.0748,4.075,4.0645,4.0629,4.0758,4.0758,4.0758,4.0758,4.0758,4.0758,4.0423,4.0486,4.0485,4.0555,4.0566,4.0614,4.063,4.0651,4.0666,4.0721,4.0752,4.0756,4.077,4.0805,4.0837,4.0837,4.085,4.0873,4.0869,4.0771,4.0757,4.0744,4.0729,4.0876,4.0877,4.0971,4.0972,4.0972]}]]